| time (UTC) | temp F | wind direction | speed MPH | gust MPH | rain 1hr in | rain 24hr in | rain mn in | humidity % | barometer mb |
| 20260906220104 | 93 | 161 | 0.0 | 3.0 | 0.00 | 0.00 | 0.00 | 33 | 1015.2 |
| 20260906215104 | 93 | 96 | 0.0 | 2.0 | 0.00 | 0.00 | 0.00 | 33 | 1015.5 |
| 20260906214603 | 93 | 96 | 1.0 | 6.0 | 0.00 | 0.00 | 0.00 | 33 | 1015.5 |
| 20260906214104 | 93 | 133 | 1.0 | 7.0 | 0.00 | 0.00 | 0.00 | 33 | 1015.5 |
| 20260906213604 | 93 | 38 | 1.0 | 3.0 | 0.00 | 0.00 | 0.00 | 35 | 1015.7 |
| 20260906213104 | 93 | 27 | 1.0 | 3.0 | 0.00 | 0.00 | 0.00 | 33 | 1015.6 |
| 20260906212104 | 92 | 179 | 0.0 | 5.0 | 0.00 | 0.00 | 0.00 | 34 | 1015.7 |
| 20260906211604 | 92 | 19 | 2.0 | 9.0 | 0.00 | 0.00 | 0.00 | 34 | 1015.7 |
| 20260906211103 | 92 | 213 | 0.0 | 2.0 | 0.00 | 0.00 | 0.00 | 34 | 1016.0 |
| 20260906210104 | 91 | 153 | 0.0 | 3.0 | 0.00 | 0.00 | 0.00 | 34 | 1016.0 |
| 20260906205604 | 91 | 139 | 0.0 | 3.0 | 0.00 | 0.00 | 0.00 | 35 | 1016.3 |
| 20260906205104 | 91 | 111 | 2.0 | 8.0 | 0.00 | 0.00 | 0.00 | 34 | 1016.2 |
| 20260906204604 | 90 | 326 | 1.0 | 3.0 | 0.00 | 0.00 | 0.00 | 35 | 1016.4 |
| 20260906204104 | 90 | 64 | 1.0 | 3.0 | 0.00 | 0.00 | 0.00 | 35 | 1016.5 |
| 20260906203604 | 89 | 54 | 1.0 | 3.0 | 0.00 | 0.00 | 0.00 | 37 | 1016.5 |
| 20260906203104 | 89 | 57 | 0.0 | 1.0 | 0.00 | 0.00 | 0.00 | 37 | 1016.3 |
| 20260906202603 | 89 | 23 | 1.0 | 3.0 | 0.00 | 0.00 | 0.00 | 36 | 1016.4 |
| 20260906202104 | 88 | 49 | 1.0 | 3.0 | 0.00 | 0.00 | 0.00 | 38 | 1016.6 |
| 20260906201603 | 88 | 77 | 1.0 | 5.0 | 0.00 | 0.00 | 0.00 | 37 | 1016.7 |
| 20260906201103 | 88 | 185 | 0.0 | 3.0 | 0.00 | 0.00 | 0.00 | 38 | 1016.7 |
| 20260906200604 | 88 | 90 | 0.0 | 3.0 | 0.00 | 0.00 | 0.00 | 38 | 1017.0 |
| 20260906200104 | 88 | 2 | 1.0 | 3.0 | 0.00 | 0.00 | 0.00 | 38 | 1017.5 |
| 20260906195603 | 87 | 29 | 1.0 | 5.0 | 0.00 | 0.00 | 0.00 | 39 | 1017.5 |
| 20260906195103 | 87 | 92 | 1.0 | 3.0 | 0.00 | 0.00 | 0.00 | 39 | 1017.5 |
| 20260906194603 | 87 | 103 | 1.0 | 3.0 | 0.00 | 0.00 | 0.00 | 40 | 1017.5 |
| 20260906194103 | 87 | 74 | 0.0 | 3.0 | 0.00 | 0.00 | 0.00 | 39 | 1017.5 |
| 20260906193104 | 86 | 51 | 1.0 | 3.0 | 0.00 | 0.00 | 0.00 | 41 | 1017.7 |
| 20260906192104 | 86 | 49 | 1.0 | 3.0 | 0.00 | 0.00 | 0.00 | 42 | 1017.9 |
| 20260906191604 | 86 | 86 | 0.0 | 3.0 | 0.00 | 0.00 | 0.00 | 41 | 1018.0 |
| 20260906190603 | 86 | 131 | 0.0 | 2.0 | 0.00 | 0.00 | 0.00 | 42 | 1018.2 |
| 20260906190104 | 85 | 62 | 1.0 | 5.0 | 0.00 | 0.00 | 0.00 | 42 | 1018.4 |
| 20260906185603 | 85 | 337 | 1.0 | 3.0 | 0.00 | 0.00 | 0.00 | 40 | 1018.2 |
| 20260906185104 | 85 | 171 | 1.0 | 5.0 | 0.00 | 0.00 | 0.00 | 41 | 1018.3 |
| 20260906184103 | 84 | 67 | 0.0 | 0.0 | 0.00 | 0.00 | 0.00 | 43 | 1018.5 |
| 20260906183604 | 84 | 67 | 0.0 | 3.0 | 0.00 | 0.00 | 0.00 | 43 | 1018.9 |
| 20260906183104 | 83 | 69 | 0.0 | 3.0 | 0.00 | 0.00 | 0.00 | 43 | 1018.7 |
| 20260906182604 | 83 | 71 | 0.0 | 1.0 | 0.00 | 0.00 | 0.00 | 45 | 1018.9 |
| 20260906182104 | 83 | 68 | 0.0 | 3.0 | 0.00 | 0.00 | 0.00 | 46 | 1019.0 |
| 20260906181603 | 83 | 78 | 0.0 | 1.0 | 0.00 | 0.00 | 0.00 | 46 | 1019.0 |
| 20260906181104 | 82 | 78 | 0.0 | 3.0 | 0.00 | 0.00 | 0.00 | 46 | 1019.0 |
| 20260906180603 | 82 | 0 | 0.0 | 3.0 | 0.00 | 0.00 | 0.00 | 46 | 1019.0 |
| 20260906180103 | 82 | 346 | 1.0 | 3.0 | 0.00 | 0.00 | 0.00 | 44 | 1019.2 |
| 20260906175604 | 82 | 335 | 0.0 | 1.0 | 0.00 | 0.00 | 0.00 | 46 | 1019.4 |
| 20260906174604 | 81 | 267 | 1.0 | 5.0 | 0.00 | 0.00 | 0.00 | 48 | 1019.4 |
| 20260906174103 | 81 | 24 | 1.0 | 5.0 | 0.00 | 0.00 | 0.00 | 48 | 1019.4 |
| 20260906173103 | 80 | 322 | 1.0 | 3.0 | 0.00 | 0.00 | 0.00 | 50 | 1019.7 |
| 20260906172104 | 80 | 50 | 0.0 | 0.0 | 0.00 | 0.00 | 0.00 | 51 | 1019.9 |
| 20260906171603 | 80 | 36 | 0.0 | 2.0 | 0.00 | 0.00 | 0.00 | 52 | 1020.0 |
| 20260906171104 | 79 | 27 | 0.0 | 2.0 | 0.00 | 0.00 | 0.00 | 53 | 1020.3 |
| 20260906170604 | 79 | 336 | 1.0 | 3.0 | 0.00 | 0.00 | 0.00 | 54 | 1020.3 |
| 20260906170106 | 79 | 22 | 0.0 | 3.0 | 0.00 | 0.00 | 0.00 | 54 | 1020.5 |
| 20260906165603 | 78 | 23 | 0.0 | 2.0 | 0.00 | 0.00 | 0.00 | 54 | 1020.4 |
| 20260906165104 | 78 | 358 | 0.0 | 1.0 | 0.00 | 0.00 | 0.00 | 55 | 1020.4 |
| 20260906164603 | 78 | 327 | 1.0 | 2.0 | 0.00 | 0.00 | 0.00 | 55 | 1020.4 |
| 20260906164104 | 77 | 329 | 0.0 | 1.0 | 0.00 | 0.00 | 0.00 | 57 | 1020.6 |
| 20260906163604 | 77 | 329 | 0.0 | 5.0 | 0.00 | 0.00 | 0.00 | 56 | 1020.4 |
| 20260906163103 | 77 | 150 | 0.0 | 1.0 | 0.00 | 0.00 | 0.00 | 58 | 1020.5 |
| 20260906162104 | 76 | 67 | 1.0 | 3.0 | 0.00 | 0.00 | 0.00 | 59 | 1020.4 |
| 20260906161604 | 76 | 84 | 0.0 | 1.0 | 0.00 | 0.00 | 0.00 | 60 | 1020.4 |
| 20260906160604 | 75 | 50 | 0.0 | 3.0 | 0.00 | 0.00 | 0.00 | 60 | 1020.4 |
| 20260906160104 | 75 | 333 | 0.0 | 1.0 | 0.00 | 0.00 | 0.00 | 62 | 1020.5 |
| 20260906155103 | 75 | 65 | 0.0 | 3.0 | 0.00 | 0.00 | 0.00 | 62 | 1020.4 |
| 20260906154603 | 74 | 321 | 0.0 | 0.0 | 0.00 | 0.00 | 0.00 | 65 | 1020.4 |
| 20260906154104 | 74 | 321 | 1.0 | 3.0 | 0.00 | 0.00 | 0.00 | 65 | 1020.5 |
| 20260906153604 | 73 | 321 | 0.0 | 1.0 | 0.00 | 0.00 | 0.00 | 66 | 1020.5 |
| 20260906153104 | 72 | 321 | 0.0 | 1.0 | 0.00 | 0.00 | 0.00 | 67 | 1020.6 |
| 20260906152604 | 72 | 321 | 0.0 | 2.0 | 0.00 | 0.00 | 0.00 | 68 | 1020.7 |
| 20260906152104 | 71 | 280 | 0.0 | 3.0 | 0.00 | 0.00 | 0.00 | 71 | 1020.7 |
| 20260906151104 | 71 | 359 | 1.0 | 3.0 | 0.00 | 0.00 | 0.00 | 71 | 1020.7 |
| 20260906150604 | 70 | 225 | 0.0 | 3.0 | 0.00 | 0.00 | 0.00 | 72 | 1020.7 |
| 20260906145604 | 70 | 335 | 0.0 | 1.0 | 0.00 | 0.00 | 0.00 | 73 | 1020.7 |
| 20260906145104 | 70 | 335 | 0.0 | 2.0 | 0.00 | 0.00 | 0.00 | 75 | 1020.6 |
| 20260906143603 | 68 | 235 | 0.0 | 0.0 | 0.00 | 0.00 | 0.00 | 78 | 1020.7 |
| 20260906143104 | 68 | 235 | 1.0 | 3.0 | 0.00 | 0.00 | 0.00 | 79 | 1020.8 |
| 20260906142603 | 67 | 249 | 0.0 | 3.0 | 0.00 | 0.00 | 0.00 | 80 | 1020.8 |
| 20260906142103 | 67 | 218 | 0.0 | 5.0 | 0.00 | 0.00 | 0.00 | 81 | 1020.7 |
| 20260906141604 | 66 | 173 | 1.0 | 2.0 | 0.00 | 0.00 | 0.00 | 81 | 1020.6 |
| 20260906141103 | 66 | 173 | 1.0 | 5.0 | 0.00 | 0.00 | 0.00 | 83 | 1020.7 |
| 20260906140604 | 65 | 130 | 0.0 | 1.0 | 0.00 | 0.00 | 0.00 | 84 | 1020.7 |
| 20260906135104 | 63 | 130 | 0.0 | 0.0 | 0.00 | 0.00 | 0.00 | 87 | 1020.5 |
| 20260906134104 | 62 | 76 | 0.0 | 0.0 | 0.00 | 0.00 | 0.00 | 88 | 1020.5 |
| 20260906133604 | 62 | 76 | 0.0 | 0.0 | 0.00 | 0.00 | 0.00 | 88 | 1020.5 |
| 20260906132604 | 61 | 76 | 0.0 | 0.0 | 0.00 | 0.00 | 0.00 | 88 | 1020.5 |
| 20260906132104 | 61 | 76 | 0.0 | 0.0 | 0.00 | 0.00 | 0.00 | 88 | 1020.4 |
| 20260906131604 | 61 | 76 | 0.0 | 0.0 | 0.00 | 0.00 | 0.00 | 88 | 1020.3 |
| 20260906131104 | 61 | 76 | 0.0 | 0.0 | 0.00 | 0.00 | 0.00 | 88 | 1020.3 |
| 20260906130104 | 61 | 76 | 0.0 | 0.0 | 0.00 | 0.00 | 0.00 | 87 | 1020.2 |
| 20260906125604 | 61 | 76 | 0.0 | 0.0 | 0.00 | 0.00 | 0.00 | 87 | 1020.0 |
| 20260906124603 | 61 | 76 | 0.0 | 0.0 | 0.00 | 0.00 | 0.00 | 86 | 1020.0 |
| 20260906124104 | 61 | 76 | 0.0 | 0.0 | 0.00 | 0.00 | 0.00 | 86 | 1020.0 |
| 20260906123604 | 61 | 76 | 0.0 | 0.0 | 0.00 | 0.00 | 0.00 | 86 | 1020.1 |
| 20260906123104 | 61 | 76 | 0.0 | 0.0 | 0.00 | 0.00 | 0.00 | 85 | 1020.0 |
| 20260906122604 | 61 | 76 | 0.0 | 0.0 | 0.00 | 0.00 | 0.00 | 85 | 1020.0 |
| 20260906122103 | 62 | 76 | 0.0 | 0.0 | 0.00 | 0.00 | 0.00 | 84 | 1020.2 |
| 20260906121604 | 62 | 76 | 0.0 | 0.0 | 0.00 | 0.00 | 0.00 | 84 | 1020.2 |
| 20260906121104 | 62 | 76 | 0.0 | 0.0 | 0.00 | 0.00 | 0.00 | 83 | 1020.1 |
| 20260906120603 | 62 | 76 | 0.0 | 0.0 | 0.00 | 0.00 | 0.00 | 83 | 1020.1 |
| 20260906115604 | 62 | 76 | 0.0 | 0.0 | 0.00 | 0.00 | 0.00 | 83 | 1020.2 |
| 20260906115104 | 62 | 76 | 0.0 | 0.0 | 0.00 | 0.00 | 0.00 | 82 | 1020.0 |
| 20260906114104 | 62 | 76 | 0.0 | 0.0 | 0.00 | 0.00 | 0.00 | 81 | 1020.0 |
| 20260906113104 | 62 | 76 | 0.0 | 0.0 | 0.00 | 0.00 | 0.00 | 80 | 1020.0 |
| 20260906112103 | 63 | 76 | 0.0 | 0.0 | 0.00 | 0.00 | 0.00 | 80 | 1019.9 |
| 20260906111604 | 63 | 76 | 0.0 | 0.0 | 0.00 | 0.00 | 0.00 | 79 | 1019.8 |
| 20260906111104 | 63 | 76 | 0.0 | 0.0 | 0.00 | 0.00 | 0.00 | 78 | 1019.9 |
| 20260906110603 | 63 | 76 | 0.0 | 0.0 | 0.00 | 0.00 | 0.00 | 77 | 1019.8 |
| 20260906110103 | 63 | 76 | 0.0 | 0.0 | 0.00 | 0.00 | 0.00 | 77 | 1019.9 |
| 20260906105604 | 64 | 76 | 0.0 | 0.0 | 0.00 | 0.00 | 0.00 | 76 | 1019.7 |
| 20260906104604 | 64 | 76 | 0.0 | 0.0 | 0.00 | 0.00 | 0.00 | 75 | 1019.5 |
| 20260906104103 | 64 | 76 | 0.0 | 0.0 | 0.00 | 0.00 | 0.00 | 75 | 1019.6 |
| 20260906103604 | 64 | 76 | 0.0 | 0.0 | 0.00 | 0.00 | 0.00 | 74 | 1019.5 |
| 20260906103103 | 65 | 76 | 0.0 | 0.0 | 0.00 | 0.00 | 0.00 | 74 | 1019.4 |
| 20260906102604 | 65 | 76 | 0.0 | 0.0 | 0.00 | 0.00 | 0.00 | 73 | 1019.4 |
| 20260906102104 | 65 | 76 | 0.0 | 0.0 | 0.00 | 0.00 | 0.00 | 73 | 1019.4 |
| 20260906101604 | 65 | 76 | 0.0 | 0.0 | 0.00 | 0.00 | 0.00 | 72 | 1019.3 |
| 20260906101103 | 65 | 76 | 0.0 | 1.0 | 0.00 | 0.00 | 0.00 | 71 | 1019.3 |
| 20260906100103 | 65 | 76 | 0.0 | 0.0 | 0.00 | 0.00 | 0.00 | 67 | 1019.4 |
| 20260906095604 | 65 | 76 | 0.0 | 0.0 | 0.00 | 0.00 | 0.00 | 66 | 1019.5 |
| 20260906095103 | 65 | 76 | 0.0 | 0.0 | 0.00 | 0.00 | 0.00 | 66 | 1019.5 |
| 20260906094604 | 65 | 76 | 0.0 | 0.0 | 0.00 | 0.00 | 0.00 | 66 | 1019.5 |
| 20260906093603 | 66 | 76 | 0.0 | 0.0 | 0.00 | 0.00 | 0.00 | 64 | 1019.4 |
| 20260906093104 | 66 | 76 | 0.0 | 0.0 | 0.00 | 0.00 | 0.00 | 63 | 1019.5 |
| 20260906092604 | 66 | 76 | 0.0 | 0.0 | 0.00 | 0.00 | 0.00 | 62 | 1019.5 |
| 20260906092104 | 66 | 76 | 0.0 | 0.0 | 0.00 | 0.00 | 0.00 | 62 | 1019.4 |
| 20260906091603 | 67 | 76 | 0.0 | 0.0 | 0.00 | 0.00 | 0.00 | 62 | 1019.4 |
| 20260906091104 | 67 | 76 | 0.0 | 0.0 | 0.00 | 0.00 | 0.00 | 61 | 1019.3 |
| 20260906090604 | 67 | 76 | 0.0 | 0.0 | 0.00 | 0.00 | 0.00 | 61 | 1019.3 |
| 20260906085603 | 67 | 76 | 0.0 | 0.0 | 0.00 | 0.00 | 0.00 | 62 | 1019.2 |
| 20260906084103 | 67 | 76 | 0.0 | 0.0 | 0.00 | 0.00 | 0.00 | 63 | 1019.1 |
| 20260906083604 | 67 | 76 | 0.0 | 0.0 | 0.00 | 0.00 | 0.00 | 62 | 1019.2 |
| 20260906083104 | 67 | 76 | 0.0 | 0.0 | 0.00 | 0.00 | 0.00 | 62 | 1019.2 |
| 20260906082604 | 67 | 76 | 0.0 | 0.0 | 0.00 | 0.00 | 0.00 | 62 | 1019.2 |
| 20260906082103 | 67 | 76 | 0.0 | 0.0 | 0.00 | 0.00 | 0.00 | 61 | 1019.3 |
| 20260906081603 | 67 | 76 | 0.0 | 0.0 | 0.00 | 0.00 | 0.00 | 60 | 1019.4 |
| 20260906081104 | 68 | 76 | 0.0 | 0.0 | 0.00 | 0.00 | 0.00 | 61 | 1019.3 |
| 20260906080603 | 68 | 76 | 0.0 | 0.0 | 0.00 | 0.00 | 0.00 | 60 | 1019.3 |
| 20260906080104 | 68 | 76 | 0.0 | 0.0 | 0.00 | 0.00 | 0.00 | 60 | 1019.3 |
| 20260906075103 | 68 | 76 | 0.0 | 0.0 | 0.00 | 0.00 | 0.00 | 59 | 1019.2 |
| 20260906074604 | 68 | 76 | 0.0 | 0.0 | 0.00 | 0.00 | 0.00 | 58 | 1019.2 |
| 20260906073604 | 69 | 76 | 0.0 | 0.0 | 0.00 | 0.00 | 0.00 | 58 | 1019.0 |
| 20260906072604 | 69 | 76 | 0.0 | 0.0 | 0.00 | 0.00 | 0.00 | 56 | 1018.8 |
| 20260906072103 | 69 | 76 | 0.0 | 0.0 | 0.00 | 0.00 | 0.00 | 56 | 1018.8 |
| 20260906071103 | 69 | 76 | 0.0 | 0.0 | 0.00 | 0.00 | 0.00 | 55 | 1018.7 |
| 20260906070104 | 70 | 76 | 0.0 | 0.0 | 0.00 | 0.00 | 0.00 | 55 | 1018.7 |
| 20260906065604 | 70 | 76 | 0.0 | 0.0 | 0.00 | 0.00 | 0.00 | 56 | 1018.6 |
| 20260906064104 | 70 | 76 | 0.0 | 0.0 | 0.00 | 0.00 | 0.00 | 53 | 1018.7 |
| 20260906063604 | 71 | 76 | 0.0 | 0.0 | 0.00 | 0.00 | 0.00 | 52 | 1018.6 |
| 20260906063103 | 71 | 76 | 0.0 | 0.0 | 0.00 | 0.00 | 0.00 | 52 | 1018.7 |
| 20260906062604 | 71 | 76 | 0.0 | 0.0 | 0.00 | 0.00 | 0.00 | 50 | 1018.7 |
| 20260906062103 | 71 | 76 | 0.0 | 0.0 | 0.00 | 0.00 | 0.00 | 50 | 1018.8 |
| 20260906061603 | 71 | 76 | 0.0 | 0.0 | 0.00 | 0.00 | 0.00 | 50 | 1019.2 |
| 20260906061104 | 72 | 76 | 0.0 | 0.0 | 0.00 | 0.00 | 0.00 | 50 | 1019.2 |
| 20260906060604 | 72 | 76 | 0.0 | 0.0 | 0.00 | 0.00 | 0.00 | 50 | 1019.2 |
| 20260906060103 | 72 | 76 | 0.0 | 0.0 | 0.00 | 0.00 | 0.00 | 49 | 1019.4 |
| 20260906055603 | 72 | 76 | 0.0 | 0.0 | 0.00 | 0.00 | 0.00 | 48 | 1019.3 |
| 20260906055103 | 72 | 76 | 0.0 | 0.0 | 0.00 | 0.00 | 0.00 | 48 | 1019.2 |
| 20260906054604 | 73 | 76 | 0.0 | 0.0 | 0.00 | 0.00 | 0.00 | 48 | 1019.2 |
| 20260906054104 | 73 | 76 | 0.0 | 0.0 | 0.00 | 0.00 | 0.00 | 48 | 1019.2 |
| 20260906053604 | 73 | 76 | 0.0 | 0.0 | 0.00 | 0.00 | 0.00 | 47 | 1019.2 |
| 20260906053103 | 73 | 76 | 0.0 | 0.0 | 0.00 | 0.00 | 0.00 | 47 | 1019.4 |
| 20260906052603 | 73 | 76 | 0.0 | 0.0 | 0.00 | 0.00 | 0.00 | 47 | 1019.4 |
| 20260906052104 | 73 | 76 | 0.0 | 0.0 | 0.00 | 0.00 | 0.00 | 48 | 1019.5 |
| 20260906051604 | 73 | 76 | 0.0 | 0.0 | 0.00 | 0.00 | 0.00 | 48 | 1019.5 |
| 20260906051104 | 73 | 76 | 0.0 | 0.0 | 0.00 | 0.00 | 0.00 | 47 | 1019.5 |
| 20260906050603 | 74 | 76 | 0.0 | 0.0 | 0.00 | 0.00 | 0.00 | 47 | 1019.4 |
| 20260906045603 | 74 | 76 | 0.0 | 0.0 | 0.00 | 0.00 | 0.00 | 46 | 1019.5 |
| 20260906045104 | 74 | 76 | 0.0 | 0.0 | 0.00 | 0.00 | 0.00 | 46 | 1019.6 |
| 20260906044103 | 74 | 76 | 0.0 | 0.0 | 0.00 | 0.00 | 0.00 | 46 | 1019.9 |
| 20260906043603 | 74 | 76 | 0.0 | 0.0 | 0.00 | 0.00 | 0.00 | 44 | 1019.6 |
| 20260906043104 | 74 | 76 | 0.0 | 0.0 | 0.00 | 0.00 | 0.00 | 45 | 1019.4 |
| 20260906042604 | 73 | 76 | 0.0 | 3.0 | 0.00 | 0.00 | 0.00 | 44 | 1019.5 |
| 20260906041603 | 73 | 341 | 0.0 | 0.0 | 0.00 | 0.00 | 0.00 | 46 | 1019.4 |
| 20260906041104 | 73 | 341 | 0.0 | 0.0 | 0.00 | 0.00 | 0.00 | 47 | 1019.1 |
| 20260906040604 | 73 | 341 | 0.0 | 0.0 | 0.00 | 0.00 | 0.00 | 47 | 1018.8 |
| 20260906040104 | 73 | 341 | 0.0 | 0.0 | 0.00 | 0.00 | 0.00 | 47 | 1018.7 |
| 20260906035603 | 73 | 341 | 0.0 | 0.0 | 0.00 | 0.00 | 0.00 | 46 | 1018.4 |
| 20260906034604 | 73 | 341 | 0.0 | 0.0 | 0.00 | 0.00 | 0.00 | 46 | 1018.4 |
| 20260906034104 | 74 | 341 | 0.0 | 0.0 | 0.00 | 0.00 | 0.00 | 47 | 1018.5 |
| 20260906033604 | 74 | 341 | 0.0 | 0.0 | 0.00 | 0.00 | 0.00 | 46 | 1018.6 |
| 20260906033103 | 75 | 341 | 0.0 | 0.0 | 0.00 | 0.00 | 0.00 | 46 | 1018.5 |
| 20260906032604 | 75 | 341 | 0.0 | 0.0 | 0.00 | 0.00 | 0.00 | 45 | 1018.5 |
| 20260906032104 | 75 | 341 | 0.0 | 0.0 | 0.00 | 0.00 | 0.00 | 45 | 1018.6 |
| 20260906031604 | 76 | 341 | 0.0 | 0.0 | 0.00 | 0.00 | 0.00 | 43 | 1018.4 |
| 20260906031104 | 76 | 341 | 0.0 | 0.0 | 0.00 | 0.00 | 0.00 | 41 | 1018.3 |
| 20260906030603 | 77 | 341 | 0.0 | 0.0 | 0.00 | 0.00 | 0.00 | 41 | 1017.9 |
| 20260906030104 | 77 | 341 | 0.0 | 0.0 | 0.00 | 0.00 | 0.00 | 40 | 1017.9 |
| 20260906025604 | 78 | 341 | 0.0 | 0.0 | 0.00 | 0.00 | 0.00 | 40 | 1017.8 |
| 20260906024604 | 79 | 341 | 0.0 | 0.0 | 0.00 | 0.00 | 0.00 | 39 | 1017.4 |
| 20260906024104 | 79 | 341 | 0.0 | 0.0 | 0.00 | 0.00 | 0.00 | 38 | 1017.4 |
| 20260906023103 | 80 | 341 | 0.0 | 0.0 | 0.00 | 0.00 | 0.00 | 36 | 1017.5 |
| 20260906022604 | 81 | 341 | 0.0 | 0.0 | 0.00 | 0.00 | 0.00 | 36 | 1017.4 |
| 20260906022104 | 81 | 341 | 0.0 | 0.0 | 0.00 | 0.00 | 0.00 | 35 | 1017.2 |
| 20260906021604 | 81 | 341 | 0.0 | 0.0 | 0.00 | 0.00 | 0.00 | 35 | 1017.1 |
| 20260906021103 | 82 | 341 | 0.0 | 0.0 | 0.00 | 0.00 | 0.00 | 34 | 1017.4 |
| 20260906020603 | 82 | 341 | 1.0 | 3.0 | 0.00 | 0.00 | 0.00 | 34 | 1017.3 |
| 20260906020104 | 82 | 355 | 0.0 | 1.0 | 0.00 | 0.00 | 0.00 | 33 | 1017.3 |
| 20260906015604 | 83 | 355 | 0.0 | 0.0 | 0.00 | 0.00 | 0.00 | 33 | 1017.0 |
| 20260906015104 | 83 | 355 | 0.0 | 1.0 | 0.00 | 0.00 | 0.00 | 33 | 1016.9 |
| 20260906014103 | 83 | 19 | 0.0 | 3.0 | 0.00 | 0.00 | 0.00 | 32 | 1016.8 |
| 20260906013603 | 84 | 24 | 1.0 | 3.0 | 0.00 | 0.00 | 0.00 | 32 | 1016.5 |
| 20260906013104 | 84 | 329 | 1.0 | 5.0 | 0.00 | 0.00 | 0.00 | 31 | 1016.6 |
| 20260906012604 | 83 | 318 | 1.0 | 3.0 | 0.00 | 0.00 | 0.00 | 31 | 1016.4 |
| 20260906012103 | 83 | 344 | 2.0 | 3.0 | 0.00 | 0.00 | 0.00 | 31 | 1016.4 |
| 20260906011604 | 83 | 339 | 0.0 | 3.0 | 0.00 | 0.00 | 0.00 | 33 | 1016.4 |
| 20260906011104 | 83 | 338 | 0.0 | 0.0 | 0.00 | 0.00 | 0.00 | 35 | 1016.5 |
| 20260906010603 | 84 | 338 | 0.0 | 0.0 | 0.00 | 0.00 | 0.00 | 36 | 1016.5 |
| 20260906005604 | 85 | 338 | 0.0 | 0.0 | 0.00 | 0.00 | 0.00 | 36 | 1016.4 |
| 20260906005104 | 85 | 338 | 0.0 | 0.0 | 0.00 | 0.00 | 0.00 | 34 | 1016.5 |
| 20260906004603 | 85 | 338 | 0.0 | 0.0 | 0.00 | 0.00 | 0.00 | 33 | 1016.5 |
| 20260906004104 | 86 | 338 | 0.0 | 0.0 | 0.00 | 0.00 | 0.00 | 32 | 1016.6 |
| 20260906003604 | 87 | 338 | 0.0 | 0.0 | 0.00 | 0.00 | 0.00 | 31 | 1016.5 |
| 20260906003103 | 88 | 338 | 0.0 | 0.0 | 0.00 | 0.00 | 0.00 | 31 | 1016.5 |
| 20260906002604 | 89 | 338 | 0.0 | 0.0 | 0.00 | 0.00 | 0.00 | 30 | 1016.5 |
| 20260906001604 | 90 | 338 | 0.0 | 0.0 | 0.00 | 0.00 | 0.00 | 28 | 1016.5 |
| 20260906001103 | 91 | 338 | 0.0 | 0.0 | 0.00 | 0.00 | 0.00 | 27 | 1016.5 |
| 20260906000104 | 92 | 338 | 0.0 | 0.0 | 0.00 | 0.00 | 0.00 | 26 | 1016.3 |
| 20260905235604 | 92 | 338 | 0.0 | 1.0 | 0.00 | 0.00 | 0.00 | 25 | 1016.3 |
| 20260905235104 | 93 | 338 | 0.0 | 1.0 | 0.00 | 0.00 | 0.00 | 25 | 1016.3 |
| 20260905234604 | 93 | 339 | 1.0 | 3.0 | 0.00 | 0.00 | 0.00 | 24 | 1016.3 |
| 20260905234104 | 94 | 103 | 0.0 | 3.0 | 0.00 | 0.00 | 0.00 | 24 | 1016.3 |
| 20260905233604 | 94 | 11 | 0.0 | 0.0 | 0.00 | 0.00 | 0.00 | 24 | 1016.3 |
| 20260905232104 | 93 | 10 | 0.0 | 1.0 | 0.00 | 0.00 | 0.00 | 24 | 1016.1 |
| 20260905231603 | 94 | 10 | 0.0 | 3.0 | 0.00 | 0.00 | 0.00 | 24 | 1016.2 |
| 20260905231104 | 94 | 55 | 0.0 | 3.0 | 0.00 | 0.00 | 0.00 | 24 | 1016.2 |
| 20260905230604 | 94 | 59 | 0.0 | 2.0 | 0.00 | 0.00 | 0.00 | 24 | 1016.3 |
| 20260905230104 | 93 | 16 | 0.0 | 3.0 | 0.00 | 0.00 | 0.00 | 24 | 1016.3 |
| 20260905225604 | 93 | 336 | 1.0 | 3.0 | 0.00 | 0.00 | 0.00 | 25 | 1016.3 |
| 20260905225104 | 93 | 336 | 0.0 | 2.0 | 0.00 | 0.00 | 0.00 | 25 | 1016.2 |
| 20260905224604 | 93 | 336 | 0.0 | 3.0 | 0.00 | 0.00 | 0.00 | 25 | 1016.1 |
| 20260905224104 | 93 | 169 | 1.0 | 3.0 | 0.00 | 0.00 | 0.00 | 24 | 1016.1 |
| 20260905223103 | 93 | 326 | 2.0 | 9.0 | 0.00 | 0.00 | 0.00 | 24 | 1016.1 |
| 20260905222603 | 93 | 355 | 1.0 | 3.0 | 0.00 | 0.00 | 0.00 | 25 | 1016.1 |
| 20260905222103 | 92 | 355 | 2.0 | 5.0 | 0.00 | 0.00 | 0.00 | 25 | 1016.3 |
| 20260905221604 | 92 | 346 | 0.0 | 1.0 | 0.00 | 0.00 | 0.00 | 26 | 1016.3 |
| 20260905221104 | 92 | 346 | 0.0 | 1.0 | 0.00 | 0.00 | 0.00 | 26 | 1016.3 |
| 20260905220604 | 91 | 346 | 0.0 | 2.0 | 0.00 | 0.00 | 0.00 | 26 | 1016.4 |